Temperature
18 18 18 17 17 17 17 16 16 16 16 16 16 16 16 15 15 15 15 14 14 14 14 14 14 14 14 14 14 14 14 14 14 14 14 14 14 14 14 14 14 14 14
18 18 18 17 17 17 17 16 16 16 16 16 16 16 15 15 15 15 14 14 14 14 14 14 14 14 14 14 14 14 14 14 14 13 13 13 13 13 14 14 14 14 14
18 18 18 17 17 17 16 16 16 16 16 16 16 15 15 15 15 15 15 14 14 14 14 14 14 14 14 14 13 13 13 13 13 13 13 13 13 13 13 13 13 13 14
18 18 17 17 17 17 17 16 16 16 16 16 15 15 15 15 15 15 14 14 14 14 14 14 14 14 13 13 13 13 13 13 13 13 13 13 13 13 13 13 13 13 13
18 18 18 17 17 17 17 16 16 16 15 15 15 15 15 15 15 15 14 14 14 14 14 14 13 13 13 13 13 13 13 12 12 12 12 12 12 12 12 12 12 13 13
18 18 18 17 17 17 16 16 16 15 15 15 15 15 15 15 15 14 14 14 14 13 13 13 13 13 13 13 13 12 12 12 12 12 12 12 12 12 12 12 12 12 12
18 18 18 17 17 17 16 16 16 15 15 15 15 15 15 15 14 14 14 14 14 13 13 13 13 12 12 12 12 12 12 12 11 11 11 11 11 11 11 11 11 11 11
18 18 18 17 17 17 16 16 16 15 15 15 15 15 15 14 14 14 14 14 13 13 13 12 12 12 12 12 12 12 11 11 11 11 11 11 11 11 11 11 11 11 11
18 18 18 17 17 17 16 16 15 15 15 15 14 14 14 14 14 14 13 13 13 13 12 12 12 12 12 12 12 12 11 11 11 11 11 10 10 10 10 10 10 10 10
18 18 18 17 17 17 16 16 15 15 14 14 14 14 14 14 14 13 13 13 13 12 12 12 12 12 12 12 11 11 11 11 11 11 10 10 10 10 10 10 10 9 9
18 18 18 17 17 17 16 16 15 15 14 14 14 13 13 13 13 13 13 13 13 12 12 12 12 11 11 11 11 11 11 10 10 10 10 9 9 9 9 9 9 9 9
18 18 18 17 17 16 16 16 15 15 14 14 13 13 13 13 13 13 13 13 12 12 12 12 11 11 11 11 11 11 10 10 10 10 9 9 9 9 9 9 9 9 8
18 18 17 17 17 16 16 16 15 15 14 14 13 13 13 13 13 13 12 12 12 12 12 11 11 11 11 11 10 10 10 10 9 9 9 9 9 9 9 8 8 8 8
18 17 17 17 16 16 16 15 15 15 14 14 13 13 12 12 12 12 12 12 12 11 11 11 11 10 10 10 10 9 9 9 9 9 9 9 8 8 8 8 8 8 8
17 17 17 16 16 16 16 15 15 15 15 14 13 13 13 12 12 12 12 11 11 11 11 11 10 10 10 9 9 9 9 9 9 8 8 8 8 8 8 7 7 7 7
17 17 16 16 16 16 15 15 14 14 14 14 13 13 12 12 12 12 11 11 11 11 10 10 10 9 9 9 9 9 9 8 8 8 8 8 8 7 7 7 7 6 6
17 17 16 16 16 15 15 15 14 14 14 13 13 13 12 12 12 11 11 11 11 10 10 10 10 9 9 9 9 8 8 8 8 8 8 7 7 7 7 7 6 6 6
16 16 16 16 15 15 15 14 14 14 14 13 13 13 12 12 12 11 11 11 10 10 10 10 9 9 9 8 8 8 8 8 8 7 7 7 7 6 6 6 6 6 5
16 15 15 15 15 14 14 14 14 13 13 13 13 12 12 12 11 11 10 10 10 10 10 9 9 9 8 8 8 8 8 7 7 7 7 6 6 6 6 6 5 5 5
15 15 15 15 14 14 14 13 13 13 13 12 12 12 12 11 11 11 10 10 10 10 9 9 9 8 8 8 8 7 7 7 7 6 6 6 6 5 5 5 5 5 4
15 14 14 14 14 13 13 13 13 12 12 12 12 12 11 11 11 11 10 10 10 9 9 9 8 8 8 7 7 7 7 6 6 6 5 5 5 5 5 4 4 4 4
14 14 13 13 13 13 12 12 12 12 12 11 11 11 10 10 10 10 10 9 9 9 8 8 8 7 7 7 7 6 6 6 5 5 5 5 4 4 4 4 4 3 3
13 13 13 12 12 12 12 12 11 11 11 11 10 10 10 10 10 9 9 9 9 8 8 8 7 7 7 6 6 6 5 5 5 5 4 4 4 4 3 3 3 3 3
13 12 12 12 12 11 11 11 11 11 10 10 10 10 10 10 9 9 9 8 8 8 7 7 7 7 6 6 6 5 5 5 4 4 4 4 3 3 3 3 2 2 2
12 12 11 11 11 11 11 11 10 10 10 10 10 9 9 9 9 9 8 8 8 7 7 7 6 6 6 6 5 5 5 4 4 3 3 3 3 2 2 2 2 1 1
11 11 11 11 10 10 10 10 10 10 9 9 9 9 9 8 8 8 8 7 7 7 6 6 6 6 5 5 5 4 4 3 3 3 3 2 2 2 2 1 1 1 1
Wind_Speed
7 6 6 4 4 4 3 3 2 3 4 3 2 3 4 4 5 5 4 5 5 4 4 5 5 5 4 4 4 4 4 3 2 2 2 2 3 3 4 5 2 0 1
7 7 6 6 4 5 4 3 1 2 3 4 4 4 5 5 5 5 4 4 4 4 4 5 5 5 5 5 4 5 4 3 3 2 2 3 3 2 2 3 3 3 1
7 7 6 6 5 5 6 4 2 3 3 3 4 3 5 5 4 3 3 3 4 4 5 6 6 6 5 4 5 5 4 4 3 2 3 3 2 3 3 4 4 3 4
7 7 6 6 5 4 5 4 3 3 3 3 4 5 6 7 6 6 5 4 4 4 6 6 6 6 5 5 5 5 4 4 4 3 3 3 3 3 3 3 4 3 4
8 7 6 6 5 5 5 3 3 3 4 4 5 6 6 6 6 7 5 5 4 4 5 5 5 6 7 5 4 4 5 4 3 3 3 3 3 4 4 3 4 4 4
8 7 7 6 6 6 6 4 3 3 4 5 5 5 6 5 7 9 7 5 4 4 3 3 4 5 5 5 5 4 3 3 3 3 3 3 4 3 4 4 4 4 4
9 8 7 7 7 6 6 5 4 4 4 4 4 5 5 5 5 6 8 5 3 3 3 4 4 5 6 4 4 4 3 3 2 1 2 3 3 4 4 5 5 4 5
10 9 9 8 7 7 6 6 5 4 4 3 3 4 4 3 3 4 6 4 2 2 3 4 5 5 6 6 5 5 3 2 2 1 1 2 2 2 2 3 5 5 5
11 10 10 9 8 8 7 6 5 5 4 4 3 4 4 3 2 2 3 2 1 1 3 5 5 5 7 9 6 5 4 4 5 6 6 5 6 7 5 3 4 4 5
11 11 10 9 9 8 8 6 5 4 4 4 3 3 4 4 3 1 1 2 2 1 2 4 5 5 5 6 5 5 5 5 5 6 6 6 5 5 4 1 1 2 3
10 10 9 9 9 8 7 5 5 5 4 4 4 3 3 4 4 3 2 1 2 2 2 2 2 3 2 3 3 2 3 5 5 5 5 4 3 2 2 2 1 0 2
11 10 9 8 8 7 7 6 5 5 5 4 3 3 3 4 5 4 4 2 0 1 1 1 0 0 2 3 2 4 6 6 4 4 4 3 3 3 2 2 4 4 4
11 10 9 8 7 7 7 6 5 5 5 4 4 4 3 3 4 6 6 5 3 2 1 2 3 4 4 4 5 7 5 3 2 3 3 3 3 3 2 2 4 6 7
11 10 9 9 8 7 6 6 5 5 5 5 4 4 3 3 3 3 3 3 4 3 3 4 6 7 6 6 6 4 3 3 3 3 3 4 3 3 3 2 3 3 4
10 9 8 8 8 7 6 4 5 5 6 5 4 4 4 4 4 6 4 2 2 1 1 2 3 3 3 3 3 3 3 3 3 3 3 4 4 4 4 3 3 3 4
10 9 7 7 7 6 6 4 3 5 7 7 6 5 3 6 7 6 6 4 2 1 0 2 4 4 4 4 3 3 3 3 4 4 4 4 4 4 4 4 3 4 5
9 9 7 7 7 7 7 7 5 3 3 5 7 7 7 7 7 6 5 4 3 3 3 4 5 4 4 4 4 4 4 4 4 4 4 4 4 4 4 5 5 5 5
8 9 8 6 7 7 7 6 6 6 5 4 6 9 10 9 8 8 6 4 3 4 4 5 5 5 5 4 4 4 4 4 4 4 4 4 4 5 5 5 5 5 6
7 6 6 6 6 6 6 5 5 6 5 5 4 6 10 10 9 8 7 5 5 6 6 6 6 5 5 5 4 4 4 4 5 4 4 5 4 5 5 5 6 8 7
6 9 8 6 6 6 6 5 5 5 5 5 6 6 6 6 5 6 7 7 7 6 6 6 6 5 5 4 4 4 4 5 5 5 5 5 5 5 6 7 6 6 7
5 7 10 7 6 6 5 6 6 5 5 5 5 7 10 7 7 7 7 7 8 8 7 6 5 5 5 4 4 5 5 5 5 5 5 5 5 5 6 6 7 7 7
5 5 6 6 5 5 5 5 5 5 6 6 5 6 11 7 6 6 6 7 7 7 6 6 5 5 5 5 5 5 5 5 5 5 5 5 5 6 6 7 7 7 7
5 5 5 5 5 6 6 5 5 5 6 6 6 5 6 6 6 6 6 6 5 5 5 5 5 5 5 7 7 5 5 5 4 4 4 5 5 6 6 7 9 10 9
4 5 5 4 5 5 5 5 5 5 5 5 5 5 5 6 6 6 6 5 5 5 5 5 5 7 7 7 8 8 8 7 6 5 5 5 6 7 7 8 9 10 10
3 4 4 4 4 4 5 5 5 5 5 5 4 4 4 4 4 4 4 4 4 4 5 5 5 6 8 9 9 9 9 9 8 7 7 5 7 8 9 10 9 10 11
3 3 3 3 3 4 4 4 4 4 4 4 3 3 3 4 4 4 3 3 3 4 4 4 6 7 8 9 10 10 10 9 10 10 9 7 7 8 9 9 11 11 13
Wind_Direction
148 131 126 126 129 119 97 89 86 126 134 122 79 76 81 83 79 65 44 36 34 40 51 63 59 46 33 27 25 27 33 48 52 348 358 12 30 33 14 3 355 234 274
144 142 150 149 155 144 132 132 121 80 88 102 85 71 76 75 77 74 48 41 39 43 45 52 55 54 43 31 23 24 25 34 49 2 347 4 15 18 2 333 347 358 313
150 158 157 155 163 149 138 135 120 90 76 90 103 81 78 73 69 72 66 44 52 52 50 47 43 50 40 28 29 22 13 15 21 16 347 351 1 358 355 338 341 338 334
158 160 156 152 154 142 124 133 124 100 73 51 78 79 71 64 45 34 32 31 49 62 65 60 52 50 37 26 27 15 11 9 4 7 357 350 350 344 5 347 345 340 330
157 159 158 149 139 123 114 112 101 97 92 67 65 68 70 67 44 31 13 21 33 54 71 76 79 76 62 45 35 16 13 11 6 3 353 356 358 2 357 343 347 333 324
159 160 153 147 136 132 134 131 110 92 83 78 78 74 68 65 51 37 22 10 15 35 64 83 97 83 63 44 36 26 20 18 5 359 352 355 348 355 352 351 349 349 327
163 158 152 150 143 147 142 129 123 114 98 91 90 92 92 84 59 35 19 0 5 21 39 54 50 60 53 27 5 354 350 345 354 2 352 339 342 351 351 347 342 327 300
166 159 156 153 147 146 142 145 149 141 130 126 121 123 121 116 82 31 3 340 340 14 47 58 61 53 36 25 5 356 350 349 329 348 323 311 326 323 326 316 307 311 304
168 161 159 157 156 157 160 164 163 155 152 153 151 152 146 133 127 34 360 318 310 55 79 70 72 76 34 23 8 353 355 356 350 337 320 307 307 310 311 338 339 348 329
166 160 159 160 161 165 167 166 154 147 152 149 151 164 153 144 155 131 357 307 319 40 102 96 83 80 47 25 9 359 356 343 341 331 318 305 300 304 305 267 293 341 330
151 149 152 157 160 161 160 153 147 148 154 164 166 169 155 146 154 150 116 65 348 0 53 80 88 81 50 2 349 332 315 318 320 319 318 316 318 315 313 319 345 327 312
142 146 150 154 161 157 147 151 152 152 163 180 179 182 174 162 158 170 167 164 259 24 14 48 113 238 307 303 300 296 310 324 313 312 317 320 319 314 310 330 334 321 299
145 150 153 153 152 149 154 162 164 164 174 188 189 193 187 169 165 175 185 198 211 206 253 282 279 269 280 278 268 283 297 297 295 297 296 296 294 293 304 319 319 313 307
154 159 161 162 160 160 164 171 174 178 185 193 193 195 187 172 164 175 190 205 218 230 251 271 277 269 264 268 273 272 256 248 249 257 270 277 290 300 296 284 287 297 304
160 164 168 166 164 167 167 173 178 184 184 184 191 183 179 187 178 162 164 172 170 176 292 284 278 273 264 260 266 269 263 261 260 261 265 276 283 287 284 279 274 283 285
168 171 171 168 166 167 165 170 167 173 174 173 167 166 163 160 160 158 156 158 161 184 252 264 265 263 261 262 265 268 263 260 258 258 260 259 264 269 277 279 274 273 276
172 171 169 171 172 173 173 174 180 193 196 198 195 188 185 174 172 175 181 189 213 198 217 245 250 254 257 260 259 259 263 265 265 265 264 264 264 266 271 273 271 272 274
171 172 169 170 173 179 181 182 181 182 194 219 219 210 202 201 201 203 199 189 230 214 222 236 243 248 250 255 259 260 265 274 274 271 269 269 266 267 270 271 271 273 277
173 170 171 171 173 177 179 184 189 191 190 190 184 200 208 210 214 217 200 203 224 232 232 234 236 240 243 246 253 257 259 264 269 270 271 270 269 269 272 272 274 278 278
178 175 170 171 176 180 184 191 197 197 197 195 195 192 181 185 206 214 210 215 225 233 235 236 236 235 236 241 246 253 262 267 270 267 268 268 268 269 274 279 279 280 278
175 178 178 182 187 188 189 197 199 198 202 206 207 195 181 193 206 211 211 216 221 227 231 233 234 233 233 235 239 248 256 261 263 268 272 274 277 280 279 278 279 280 281
178 183 187 192 191 192 195 197 198 202 207 211 212 206 197 199 208 212 219 222 221 220 220 221 226 225 222 224 230 239 249 257 261 266 271 275 279 282 284 284 284 285 285
181 186 190 193 193 197 203 206 206 208 211 213 210 204 200 208 214 219 223 225 225 224 225 222 223 229 237 238 238 236 242 248 252 261 275 282 284 284 284 285 286 288 286
186 191 195 198 199 200 205 211 214 217 218 218 216 211 207 210 216 221 223 225 223 226 226 226 228 232 241 247 248 250 249 251 260 272 277 278 282 283 283 283 282 281 282
195 199 200 203 208 211 214 217 219 222 225 223 219 216 213 212 217 221 223 227 231 230 232 237 241 247 252 255 258 260 257 255 257 262 267 266 269 272 275 279 280 283 283
213 214 210 209 212 217 221 224 226 227 226 225 222 218 216 219 222 222 221 224 232 236 241 248 252 258 265 267 269 270 264 259 262 263 261 265 267 270 273 276 279 280 282
Height
1555 1557 1558 1560 1561 1562 1563 1563 1564 1565 1565 1565 1566 1566 1566 1565 1565 1565 1565 1565 1565 1564 1564 1564 1563 1563 1563 1562 1562 1562 1561 1562 1561 1562 1561 1561 1560 1560 1559 1558 1558 1557 1557
1553 1555 1557 1559 1560 1561 1562 1563 1564 1565 1566 1566 1566 1566 1566 1566 1566 1565 1565 1565 1565 1565 1565 1564 1564 1564 1563 1563 1563 1562 1562 1562 1562 1561 1561 1561 1560 1559 1558 1558 1557 1557 1556
1552 1554 1556 1558 1559 1561 1562 1563 1564 1565 1566 1566 1566 1566 1566 1566 1566 1566 1566 1566 1566 1566 1565 1565 1565 1564 1563 1563 1563 1562 1562 1562 1561 1561 1560 1560 1559 1558 1558 1557 1556 1555 1555
1550 1552 1555 1556 1558 1560 1561 1562 1563 1564 1565 1566 1566 1566 1566 1566 1566 1566 1566 1566 1566 1566 1566 1565 1565 1564 1564 1563 1562 1562 1562 1561 1561 1560 1559 1559 1558 1557 1556 1555 1554 1554 1553
1548 1550 1553 1555 1557 1558 1560 1561 1562 1563 1564 1565 1565 1565 1565 1565 1566 1566 1566 1566 1566 1566 1565 1565 1564 1564 1563 1563 1562 1562 1561 1560 1560 1559 1558 1558 1557 1556 1555 1554 1553 1552 1551
1545 1548 1551 1553 1555 1557 1558 1560 1561 1562 1563 1563 1564 1564 1564 1565 1565 1565 1565 1565 1565 1565 1565 1565 1564 1563 1563 1562 1562 1561 1561 1560 1559 1558 1557 1556 1556 1555 1553 1552 1551 1550 1548
1543 1546 1549 1551 1553 1555 1556 1558 1559 1560 1561 1562 1562 1563 1563 1564 1564 1564 1564 1564 1564 1565 1564 1564 1564 1563 1562 1561 1561 1560 1559 1558 1558 1557 1556 1555 1554 1553 1552 1550 1549 1548 1547
1541 1543 1546 1548 1550 1552 1554 1556 1557 1558 1559 1560 1561 1561 1562 1562 1563 1563 1563 1563 1563 1564 1564 1563 1563 1562 1561 1560 1560 1558 1558 1557 1556 1555 1555 1553 1552 1551 1550 1549 1547 1545 1544
1538 1540 1543 1546 1548 1550 1552 1553 1555 1556 1557 1558 1559 1560 1560 1561 1561 1562 1562 1562 1562 1562 1562 1562 1561 1561 1560 1559 1558 1557 1556 1555 1554 1553 1552 1551 1550 1549 1548 1546 1545 1543 1541
1534 1537 1540 1543 1545 1547 1549 1551 1553 1554 1555 1556 1557 1558 1558 1559 1560 1560 1560 1560 1560 1561 1560 1560 1560 1559 1558 1557 1556 1555 1554 1553 1552 1551 1550 1549 1548 1547 1546 1545 1543 1541 1539
1531 1534 1537 1540 1543 1545 1547 1549 1550 1551 1553 1554 1555 1556 1556 1557 1557 1558 1558 1559 1558 1558 1558 1558 1557 1556 1556 1555 1554 1553 1551 1550 1549 1548 1547 1546 1545 1544 1543 1542 1541 1540 1538
1528 1531 1534 1537 1540 1542 1544 1545 1547 1549 1550 1551 1552 1553 1554 1554 1555 1556 1556 1556 1556 1556 1556 1555 1555 1554 1553 1552 1551 1550 1549 1548 1546 1545 1544 1543 1542 1541 1540 1539 1538 1536 1535
1525 1528 1531 1534 1536 1538 1540 1542 1544 1545 1546 1548 1549 1550 1551 1552 1552 1553 1553 1553 1553 1553 1553 1552 1552 1551 1550 1549 1548 1547 1546 1545 1544 1542 1541 1541 1540 1538 1537 1535 1534 1532 1531
1522 1525 1528 1530 1533 1535 1537 1539 1540 1541 1543 1544 1545 1546 1548 1548 1549 1549 1550 1550 1550 1550 1549 1549 1548 1547 1546 1545 1545 1544 1543 1542 1541 1540 1538 1537 1536 1535 1534 1532 1530 1528 1526
1518 1522 1524 1527 1529 1531 1533 1535 1536 1538 1539 1540 1542 1543 1544 1544 1545 1546 1546 1546 1546 1546 1546 1545 1544 1544 1543 1542 1541 1540 1539 1538 1537 1536 1535 1533 1532 1531 1529 1528 1526 1524 1522
1515 1517 1520 1522 1525 1527 1529 1531 1532 1534 1535 1537 1538 1539 1540 1541 1542 1542 1543 1543 1543 1543 1542 1541 1540 1540 1539 1538 1537 1536 1535 1535 1533 1532 1531 1529 1528 1526 1525 1523 1522 1520 1517
1510 1513 1516 1518 1520 1522 1524 1526 1528 1530 1531 1532 1534 1535 1536 1537 1538 1538 1539 1539 1539 1538 1538 1537 1536 1535 1535 1534 1533 1532 1531 1530 1529 1528 1527 1525 1524 1522 1520 1518 1517 1515 1512
1507 1509 1511 1513 1516 1518 1519 1521 1523 1524 1526 1527 1529 1530 1531 1532 1533 1533 1534 1534 1533 1533 1532 1532 1531 1531 1530 1529 1529 1528 1526 1525 1524 1523 1521 1520 1519 1517 1515 1513 1511 1509 1507
1503 1505 1507 1509 1511 1513 1515 1517 1518 1520 1521 1522 1523 1525 1526 1527 1528 1528 1528 1528 1528 1527 1527 1527 1526 1526 1525 1524 1523 1522 1521 1520 1519 1517 1516 1514 1513 1511 1509 1507 1505 1503 1501
1498 1501 1503 1505 1507 1509 1510 1512 1513 1515 1516 1517 1518 1519 1520 1521 1521 1521 1522 1522 1522 1521 1521 1521 1521 1520 1519 1519 1518 1517 1515 1514 1513 1511 1510 1508 1507 1505 1503 1501 1499 1497 1494
1494 1496 1498 1500 1502 1503 1505 1506 1508 1509 1510 1511 1512 1513 1514 1515 1515 1515 1516 1515 1515 1515 1515 1515 1515 1514 1513 1513 1512 1510 1509 1508 1506 1505 1503 1502 1500 1498 1496 1494 1492 1489 1487
1489 1491 1493 1495 1497 1498 1500 1501 1502 1503 1505 1506 1506 1508 1508 1509 1509 1509 1509 1509 1509 1509 1509 1509 1508 1508 1507 1506 1505 1504 1502 1501 1500 1498 1496 1495 1493 1491 1489 1486 1484 1482 1479
1485 1487 1489 1490 1492 1493 1495 1496 1497 1498 1499 1500 1501 1502 1502 1502 1502 1503 1503 1503 1503 1503 1502 1502 1501 1501 1500 1500 1498 1497 1496 1494 1493 1491 1489 1487 1485 1483 1481 1478 1476 1473 1471
1481 1483 1484 1485 1487 1488 1489 1490 1491 1493 1493 1494 1495 1495 1495 1495 1496 1496 1496 1496 1496 1496 1496 1495 1494 1494 1493 1492 1491 1490 1489 1487 1486 1484 1482 1479 1477 1474 1472 1470 1467 1465 1462
1477 1478 1479 1480 1482 1483 1484 1485 1486 1487 1487 1488 1488 1489 1489 1489 1489 1489 1489 1489 1489 1489 1488 1488 1487 1486 1486 1485 1484 1482 1481 1480 1478 1476 1474 1471 1468 1466 1463 1461 1458 1456 1453
1473 1474 1475 1476 1477 1478 1479 1479 1480 1480 1481 1481 1482 1482 1482 1482 1482 1482 1482 1482 1481 1481 1481 1480 1479 1479 1478 1477 1476 1474 1473 1471 1469 1467 1465 1462 1459 1457 1454 1452 1449 1447 1444